Time,TemperatureF,DewpointF,PressureIn,WindDirection,WindDirectionDegrees,WindSpeedMPH,WindSpeedGustMPH,Humidity,HourlyPrecipIn,Conditions,Clouds,dailyrainin,SoftwareType,DateUTC
2013-01-02 00:07:00,53.3,51.0,29.94,West,270,0.0,0.0,90,0.00,,,0.00,weatherlink.com 1.10,2013-01-02 05:07:00,
2013-01-02 00:22:00,53.1,50.0,29.94,West,270,0.0,0.0,89,0.00,,,0.00,weatherlink.com 1.10,2013-01-02 05:22:00,
2013-01-02 00:37:00,53.4,51.0,29.94,West,270,0.0,0.0,90,0.00,,,0.00,weatherlink.com 1.10,2013-01-02 05:37:00,
2013-01-02 00:52:00,53.4,51.0,29.93,West,270,0.0,0.0,90,0.00,,,0.00,weatherlink.com 1.10,2013-01-02 05:52:00,
2013-01-02 01:07:00,53.4,51.0,29.92,West,270,0.0,3.0,90,0.00,,,0.00,weatherlink.com 1.10,2013-01-02 06:07:00,
2013-01-02 01:22:00,53.4,51.0,29.91,West,270,0.0,0.0,90,0.00,,,0.00,weatherlink.com 1.10,2013-01-02 06:22:00,
2013-01-02 01:37:00,53.3,51.0,29.90,West,270,0.0,0.0,90,0.00,,,0.00,weatherlink.com 1.10,2013-01-02 06:37:00,
2013-01-02 01:52:00,52.9,50.0,29.91,West,270,0.0,0.0,90,0.00,,,0.00,weatherlink.com 1.10,2013-01-02 06:52:00,
2013-01-02 02:07:00,53.0,50.0,29.90,West,270,0.0,1.0,90,0.00,,,0.00,weatherlink.com 1.10,2013-01-02 07:07:00,
2013-01-02 02:22:00,52.8,50.0,29.91,West,270,0.0,1.0,90,0.00,,,0.00,weatherlink.com 1.10,2013-01-02 07:22:00,
2013-01-02 02:37:00,53.2,50.0,29.91,West,270,0.0,0.0,90,0.00,,,0.00,weatherlink.com 1.10,2013-01-02 07:37:00,
2013-01-02 02:52:00,53.5,51.0,29.91,West,270,0.0,4.0,90,0.00,,,0.00,weatherlink.com 1.10,2013-01-02 07:52:00,
2013-01-02 03:07:00,53.9,51.0,29.90,WNW,285,2.0,4.0,90,0.00,,,0.00,weatherlink.com 1.10,2013-01-02 08:07:00,
2013-01-02 03:22:00,53.9,51.0,29.90,WNW,285,3.0,4.0,90,0.00,,,0.00,weatherlink.com 1.10,2013-01-02 08:22:00,
2013-01-02 03:37:00,53.8,51.0,29.90,WNW,285,3.0,4.0,90,0.00,,,0.00,weatherlink.com 1.10,2013-01-02 08:37:00,
2013-01-02 03:52:00,53.7,51.0,29.91,WNW,285,0.0,4.0,90,0.01,,,0.01,weatherlink.com 1.10,2013-01-02 08:52:00,
2013-01-02 04:07:00,53.8,51.0,29.91,WNW,285,2.0,3.0,90,0.01,,,0.01,weatherlink.com 1.10,2013-01-02 09:07:00,
2013-01-02 04:22:00,53.7,51.0,29.90,WNW,286,3.0,5.0,90,0.02,,,0.02,weatherlink.com 1.10,2013-01-02 09:22:00,
2013-01-02 04:37:00,53.6,51.0,29.90,WNW,286,2.0,4.0,90,0.02,,,0.02,weatherlink.com 1.10,2013-01-02 09:37:00,
2013-01-02 04:52:00,53.6,51.0,29.89,WNW,286,2.0,2.0,90,0.02,,,0.03,weatherlink.com 1.10,2013-01-02 09:52:00,
2013-01-02 05:07:00,53.4,51.0,29.89,WNW,286,3.0,4.0,90,0.04,,,0.05,weatherlink.com 1.10,2013-01-02 10:07:00,
2013-01-02 05:22:00,53.4,51.0,29.90,WNW,286,1.0,4.0,90,0.08,,,0.10,weatherlink.com 1.10,2013-01-02 10:22:00,
2013-01-02 05:37:00,53.5,51.0,29.90,NW,314,3.0,5.0,90,0.09,,,0.12,weatherlink.com 1.10,2013-01-02 10:37:00,
2013-01-02 05:52:00,53.4,51.0,29.91,NNW,342,2.0,6.0,90,0.10,,,0.13,weatherlink.com 1.10,2013-01-02 10:52:00,
2013-01-02 06:07:00,53.4,51.0,29.91,NNW,342,3.0,4.0,90,0.08,,,0.13,weatherlink.com 1.10,2013-01-02 11:07:00,
2013-01-02 06:22:00,53.2,50.0,29.91,NE,55,4.0,6.0,90,0.02,,,0.13,weatherlink.com 1.10,2013-01-02 11:22:00,
2013-01-02 06:37:00,53.1,50.0,29.88,NE,56,1.0,4.0,90,0.02,,,0.14,weatherlink.com 1.10,2013-01-02 11:37:00,
2013-01-02 06:52:00,53.1,50.0,29.89,East,88,0.0,6.0,90,0.01,,,0.14,weatherlink.com 1.10,2013-01-02 11:52:00,
2013-01-02 07:07:00,51.9,49.0,29.91,NE,41,1.0,11.0,90,0.01,,,0.14,weatherlink.com 1.10,2013-01-02 12:07:00,
2013-01-02 07:22:00,51.4,49.0,29.93,NE,46,7.0,10.0,90,0.01,,,0.14,weatherlink.com 1.10,2013-01-02 12:22:00,
2013-01-02 07:37:00,51.1,48.0,29.93,NNE,32,7.0,9.0,90,0.00,,,0.14,weatherlink.com 1.10,2013-01-02 12:37:00,
2013-01-02 07:52:00,50.8,48.0,29.95,NNE,31,7.0,11.0,90,0.01,,,0.15,weatherlink.com 1.10,2013-01-02 12:52:00,
2013-01-02 08:07:00,50.5,48.0,29.93,NNE,29,5.0,8.0,90,0.01,,,0.15,weatherlink.com 1.10,2013-01-02 13:07:00,
2013-01-02 08:22:00,50.4,48.0,29.96,NNE,22,8.0,9.0,90,0.02,,,0.16,weatherlink.com 1.10,2013-01-02 13:22:00,
2013-01-02 08:37:00,50.1,47.0,29.96,NNE,13,10.0,14.0,90,0.02,,,0.16,weatherlink.com 1.10,2013-01-02 13:37:00,
2013-01-02 08:52:00,50.0,47.0,29.97,NNE,26,8.0,12.0,90,0.01,,,0.16,weatherlink.com 1.10,2013-01-02 13:52:00,
2013-01-02 09:07:00,49.9,47.0,29.98,NNE,31,10.0,11.0,90,0.02,,,0.17,weatherlink.com 1.10,2013-01-02 14:07:00,
2013-01-02 09:22:00,49.8,47.0,29.99,NNE,28,10.0,13.0,90,0.01,,,0.17,weatherlink.com 1.10,2013-01-02 14:22:00,
2013-01-02 09:37:00,49.7,47.0,30.01,NNE,17,7.0,14.0,90,0.01,,,0.17,weatherlink.com 1.10,2013-01-02 14:37:00,
2013-01-02 09:52:00,49.8,47.0,30.00,NNE,32,4.0,13.0,90,0.01,,,0.17,weatherlink.com 1.10,2013-01-02 14:52:00,
2013-01-02 10:07:00,49.5,47.0,30.01,NNE,32,9.0,12.0,90,0.00,,,0.17,weatherlink.com 1.10,2013-01-02 15:07:00,
2013-01-02 10:22:00,49.2,47.0,30.02,NE,36,9.0,14.0,90,0.00,,,0.17,weatherlink.com 1.10,2013-01-02 15:22:00,
2013-01-02 10:37:00,49.1,46.0,30.02,NE,34,9.0,17.0,90,0.00,,,0.17,weatherlink.com 1.10,2013-01-02 15:37:00,
2013-01-02 10:52:00,49.2,47.0,30.02,NE,36,3.0,12.0,90,0.00,,,0.17,weatherlink.com 1.10,2013-01-02 15:52:00,
2013-01-02 11:07:00,49.1,46.0,30.02,NNE,22,8.0,12.0,90,0.00,,,0.17,weatherlink.com 1.10,2013-01-02 16:07:00,
2013-01-02 11:22:00,49.1,46.0,30.03,NNE,30,8.0,13.0,90,0.00,,,0.17,weatherlink.com 1.10,2013-01-02 16:22:00,
2013-01-02 11:38:00,49.2,47.0,30.02,NNE,32,4.0,13.0,90,0.00,,,0.17,weatherlink.com 1.10,2013-01-02 16:38:00,
2013-01-02 11:53:00,49.3,47.0,30.02,NNE,27,7.0,8.0,90,0.00,,,0.17,weatherlink.com 1.10,2013-01-02 16:53:00,
2013-01-02 12:08:00,49.5,47.0,30.01,NNE,27,2.0,6.0,90,0.00,,,0.17,weatherlink.com 1.10,2013-01-02 17:08:00,
2013-01-02 12:23:00,49.8,47.0,30.00,NNE,27,0.0,3.0,90,0.00,,,0.17,weatherlink.com 1.10,2013-01-02 17:23:00,
2013-01-02 12:38:00,50.6,48.0,29.99,NNE,28,2.0,3.0,90,0.00,,,0.17,weatherlink.com 1.10,2013-01-02 17:38:00,
2013-01-02 12:53:00,50.9,48.0,29.99,NNE,16,4.0,8.0,90,0.00,,,0.17,weatherlink.com 1.10,2013-01-02 17:53:00,
2013-01-02 13:08:00,50.7,48.0,30.00,North,11,7.0,12.0,90,0.00,,,0.17,weatherlink.com 1.10,2013-01-02 18:08:00,
2013-01-02 13:23:00,51.1,48.0,30.00,NNE,23,8.0,11.0,89,0.00,,,0.17,weatherlink.com 1.10,2013-01-02 18:23:00,
2013-01-02 13:38:00,51.5,48.0,29.99,North,360,7.0,9.0,89,0.00,,,0.17,weatherlink.com 1.10,2013-01-02 18:38:00,
2013-01-02 13:53:00,51.3,48.0,30.00,NNE,19,6.0,11.0,88,0.00,,,0.17,weatherlink.com 1.10,2013-01-02 18:53:00,
2013-01-02 14:08:00,51.2,48.0,30.00,NNW,347,8.0,12.0,87,0.00,,,0.17,weatherlink.com 1.10,2013-01-02 19:08:00,
2013-01-02 14:23:00,50.8,47.0,30.01,NNE,16,6.0,12.0,88,0.00,,,0.17,weatherlink.com 1.10,2013-01-02 19:23:00,
2013-01-02 14:38:00,50.6,47.0,30.02,NNE,16,9.0,12.0,87,0.00,,,0.17,weatherlink.com 1.10,2013-01-02 19:38:00,
2013-01-02 14:53:00,50.2,47.0,30.02,NE,36,11.0,13.0,87,0.00,,,0.17,weatherlink.com 1.10,2013-01-02 19:53:00,
2013-01-02 15:08:00,50.0,47.0,30.02,North,5,7.0,13.0,88,0.00,,,0.17,weatherlink.com 1.10,2013-01-02 20:08:00,
2013-01-02 15:23:00,49.3,46.0,30.04,NNE,24,7.0,14.0,88,0.00,,,0.17,weatherlink.com 1.10,2013-01-02 20:23:00,
2013-01-02 15:38:00,49.0,46.0,30.05,NNE,23,6.0,11.0,89,0.00,,,0.17,weatherlink.com 1.10,2013-01-02 20:38:00,
2013-01-02 15:53:00,48.5,46.0,30.05,NE,41,8.0,11.0,89,0.00,,,0.17,weatherlink.com 1.10,2013-01-02 20:53:00,
2013-01-02 16:08:00,47.7,45.0,30.06,NE,42,6.0,13.0,89,0.00,,,0.17,weatherlink.com 1.10,2013-01-02 21:08:00,
2013-01-02 16:23:00,47.3,44.0,30.07,NNE,30,7.0,13.0,89,0.00,,,0.17,weatherlink.com 1.10,2013-01-02 21:23:00,
2013-01-02 16:38:00,47.2,44.0,30.07,NNE,32,4.0,13.0,89,0.00,,,0.17,weatherlink.com 1.10,2013-01-02 21:38:00,
2013-01-02 16:53:00,46.6,44.0,30.08,NNE,32,5.0,11.0,90,0.00,,,0.17,weatherlink.com 1.10,2013-01-02 21:53:00,
2013-01-02 17:08:00,46.5,44.0,30.09,NE,42,8.0,9.0,90,0.00,,,0.17,weatherlink.com 1.10,2013-01-02 22:08:00,
2013-01-02 17:23:00,46.1,43.0,30.09,NNE,13,7.0,12.0,90,0.00,,,0.17,weatherlink.com 1.10,2013-01-02 22:23:00,
2013-01-02 17:38:00,45.9,43.0,30.10,NE,36,7.0,11.0,90,0.00,,,0.17,weatherlink.com 1.10,2013-01-02 22:38:00,
2013-01-02 17:53:00,45.9,43.0,30.10,NE,36,7.0,10.0,90,0.00,,,0.17,weatherlink.com 1.10,2013-01-02 22:53:00,
2013-01-02 18:08:00,45.6,43.0,30.11,NNE,25,6.0,11.0,90,0.00,,,0.17,weatherlink.com 1.10,2013-01-02 23:08:00,
2013-01-02 18:23:00,45.6,43.0,30.11,NE,35,6.0,10.0,90,0.00,,,0.17,weatherlink.com 1.10,2013-01-02 23:23:00,
2013-01-02 18:38:00,45.4,42.0,30.11,NE,34,7.0,11.0,89,0.00,,,0.17,weatherlink.com 1.10,2013-01-02 23:38:00,
2013-01-02 18:53:00,45.2,42.0,30.12,NNE,20,8.0,14.0,89,0.00,,,0.17,weatherlink.com 1.10,2013-01-02 23:53:00,
2013-01-02 19:08:00,45.0,42.0,30.13,NNE,22,10.0,13.0,89,0.00,,,0.17,weatherlink.com 1.10,2013-01-03 00:08:00,
2013-01-02 19:23:00,45.0,42.0,30.12,NNE,31,10.0,14.0,89,0.00,,,0.17,weatherlink.com 1.10,2013-01-03 00:23:00,
2013-01-02 19:38:00,45.0,42.0,30.13,NE,45,6.0,11.0,89,0.00,,,0.17,weatherlink.com 1.10,2013-01-03 00:38:00,
2013-01-02 19:53:00,44.8,42.0,30.11,NNE,26,7.0,14.0,89,0.00,,,0.17,weatherlink.com 1.10,2013-01-03 00:53:00,
2013-01-02 20:08:00,44.6,42.0,30.13,NE,35,9.0,13.0,89,0.00,,,0.17,weatherlink.com 1.10,2013-01-03 01:08:00,
2013-01-02 20:23:00,44.7,42.0,30.14,NE,34,9.0,12.0,89,0.00,,,0.17,weatherlink.com 1.10,2013-01-03 01:23:00,
2013-01-02 20:38:00,44.5,42.0,30.14,NE,38,5.0,14.0,89,0.00,,,0.17,weatherlink.com 1.10,2013-01-03 01:38:00,
2013-01-02 20:54:00,44.5,42.0,30.15,NNE,31,8.0,11.0,89,0.00,,,0.17,weatherlink.com 1.10,2013-01-03 01:54:00,
2013-01-02 21:08:00,44.3,41.0,30.14,NE,45,5.0,12.0,89,0.00,,,0.17,weatherlink.com 1.10,2013-01-03 02:08:00,
2013-01-02 21:24:00,44.3,41.0,30.16,NNE,31,6.0,11.0,89,0.00,,,0.17,weatherlink.com 1.10,2013-01-03 02:24:00,
2013-01-02 21:39:00,44.2,41.0,30.15,NE,41,3.0,12.0,89,0.00,,,0.17,weatherlink.com 1.10,2013-01-03 02:39:00,
2013-01-02 21:54:00,44.1,41.0,30.15,NE,40,8.0,13.0,87,0.00,,,0.17,weatherlink.com 1.10,2013-01-03 02:54:00,
2013-01-02 22:09:00,44.1,41.0,30.15,NE,46,8.0,13.0,87,0.00,,,0.17,weatherlink.com 1.10,2013-01-03 03:09:00,
2013-01-02 22:24:00,43.9,40.0,30.16,NE,39,8.0,13.0,87,0.00,,,0.17,weatherlink.com 1.10,2013-01-03 03:24:00,
2013-01-02 22:39:00,43.8,41.0,30.16,NE,46,6.0,10.0,88,0.00,,,0.17,weatherlink.com 1.10,2013-01-03 03:39:00,
2013-01-02 22:54:00,43.5,40.0,30.16,NE,38,5.0,12.0,87,0.00,,,0.17,weatherlink.com 1.10,2013-01-03 03:54:00,
2013-01-02 23:09:00,43.3,40.0,30.16,NE,44,5.0,10.0,87,0.00,,,0.17,weatherlink.com 1.10,2013-01-03 04:09:00,
2013-01-02 23:24:00,43.2,40.0,30.15,NNE,17,7.0,9.0,87,0.00,,,0.17,weatherlink.com 1.10,2013-01-03 04:24:00,
2013-01-02 23:39:00,43.1,40.0,30.16,NNE,29,7.0,9.0,88,0.00,,,0.17,weatherlink.com 1.10,2013-01-03 04:39:00,
2013-01-02 23:54:00,43.1,40.0,30.17,North,9,8.0,10.0,87,0.00,,,0.17,weatherlink.com 1.10,2013-01-03 04:54:00,